Afton, WI

10:02 PM CST on January 21, 2017 (GMT -0600)
Janesville

Weather History for KJVL - June, 2013

Change the Weather History Date:

Thursday, June 20, 2013

  Actual Average Record
Temperature  
Mean Temperature 71 °F -  
Max Temperature 87 °F 75 °F 101 °F (1988)
Min Temperature 55 °F 56 °F 44 °F (2003)
Cooling Degree Days 6    
Growing Degree Days 21 (Base 50)    
Moisture  
Dew Point 50 °F    
Average Humidity 55    
Maximum Humidity 73    
Minimum Humidity 25    
Precipitation  
Precipitation 0.00 in - - ()
Sea Level Pressure  
Sea Level Pressure 30.11 in    
Wind  
Wind Speed 3 mph (SE)    
Max Wind Speed 12 mph    
Max Gust Speed 17 mph    
Visibility 10 miles    
Events      
Averages and records for this station are not official NWS values.
T = Trace of Precipitation, MM = Missing Value Source: NWS Daily Summary

Daily Weather History Graph

Daily Weather History Graph

Search for Another Location

Airport or City:

Trip Planner

Search our weather history database for the weather conditions in past years. The results will help you decide how hot, cold, wet, or windy it might be!

Date:

Astronomy

Jun. 20, 2013 Rise Set
Actual Time 5:18 AM CDT 8:37 PM CDT
Civil Twilight 4:43 AM CDT 9:12 PM CDT
Nautical Twilight 3:57 AM CDT 9:57 PM CDT
Astronomical Twilight 3:02 AM CDT 10:53 PM CDT
Moon 5:37 PM CDT (6/20) 2:47 AM CDT (6/20)
Length of Visible Light 16h 29m
Length of Day
15h 19m
Waxing Gibbous, 89% of the Moon is Illuminated
Jun 20
Waxing Gibbous
Jun 23
Full
Jun 29
Last Quarter
Jul 8
New
Jul 15
First Quarter

Hourly Weather History & Observations

Time (CDT) Temp. Heat Index Dew Point Humidity Pressure Visibility Wind Dir Wind Speed Gust Speed Precip Events Conditions
12:15 AM 60.8 °F - 42.8 °F 52% 30.11 in 10.0 mi Calm Calm - N/A   Clear
12:35 AM 59.0 °F - 44.6 °F 59% 30.11 in 10.0 mi East 3.5 mph - N/A   Clear
12:55 AM 59.0 °F - 44.6 °F 59% 30.12 in 10.0 mi Calm Calm - N/A   Clear
1:15 AM 59.0 °F - 44.6 °F 59% 30.12 in 10.0 mi Calm Calm - N/A   Clear
1:35 AM 59.0 °F - 44.6 °F 59% 30.12 in 10.0 mi Calm Calm - N/A   Clear
1:55 AM 57.2 °F - 44.6 °F 63% 30.12 in 10.0 mi ESE 3.5 mph - N/A   Clear
2:15 AM 57.2 °F - 44.6 °F 63% 30.12 in 10.0 mi Calm Calm - N/A   Clear
2:35 AM 55.4 °F - 44.6 °F 67% 30.12 in 10.0 mi East 3.5 mph - N/A   Clear
2:55 AM 57.2 °F - 42.8 °F 59% 30.12 in 10.0 mi East 3.5 mph - N/A   Clear
3:15 AM 55.4 °F - 44.6 °F 67% 30.12 in 10.0 mi East 3.5 mph - N/A   Clear
3:35 AM 55.4 °F - 42.8 °F 63% 30.12 in 10.0 mi East 4.6 mph - N/A   Clear
3:55 AM 57.2 °F - 42.8 °F 59% 30.12 in 10.0 mi ESE 3.5 mph - N/A   Clear
4:15 AM 55.4 °F - 42.8 °F 63% 30.12 in 10.0 mi Calm Calm - N/A   Clear
4:35 AM 55.4 °F - 42.8 °F 63% 30.12 in 10.0 mi Calm Calm - N/A   Clear
4:55 AM 55.4 °F - 42.8 °F 63% 30.13 in 10.0 mi Calm Calm - N/A   Clear
5:15 AM 55.4 °F - 42.8 °F 63% 30.13 in 10.0 mi Calm Calm - N/A   Clear
5:35 AM 55.4 °F - 42.8 °F 63% 30.13 in 10.0 mi Calm Calm - N/A   Clear
5:45 AM 55.4 °F - 44.6 °F 67% 30.13 in 10.0 mi Calm Calm - N/A   Clear
6:45 AM 60.8 °F - 44.6 °F 55% 30.14 in 10.0 mi Calm Calm - N/A   Clear
8:45 AM 73.4 °F - 53.6 °F 50% 30.14 in 10.0 mi SSE 9.2 mph - N/A   Clear
9:45 AM 78.8 °F - 55.4 °F 44% 30.14 in 10.0 mi South 11.5 mph - N/A   Clear
11:45 AM 84.2 °F - 51.8 °F 33% 30.14 in 10.0 mi South 8.1 mph - N/A   Clear
12:45 PM 86.0 °F - 46.4 °F 25% 30.13 in 10.0 mi SSE 9.2 mph - N/A   Clear
1:45 PM 87.8 °F - - N/A% 30.11 in 10.0 mi South 11.5 mph 17.3 mph N/A   Clear
2:45 PM 87.8 °F 85.7 °F 53.6 °F 31% 30.10 in 10.0 mi South 5.8 mph - N/A   Clear
3:45 PM 87.8 °F - 51.8 °F 29% 30.08 in 10.0 mi SSE 10.4 mph - N/A   Partly Cloudy
4:45 PM 87.8 °F 85.7 °F 53.6 °F 31% 30.08 in 10.0 mi SSE 8.1 mph - N/A   Scattered Clouds
5:45 PM 87.8 °F 85.7 °F 53.6 °F 31% 30.05 in 10.0 mi SSW 8.1 mph - N/A   Partly Cloudy
6:45 PM 87.8 °F 85.7 °F 53.6 °F 31% 30.05 in 10.0 mi SSE 10.4 mph - N/A   Partly Cloudy
7:45 PM 84.2 °F 83.0 °F 55.4 °F 37% 30.05 in 10.0 mi SSE 5.8 mph - N/A   Partly Cloudy
8:45 PM 78.8 °F - 60.8 °F 54% 30.05 in 10.0 mi ESE 6.9 mph - N/A   Clear
9:15 PM 77.0 °F - 60.8 °F 57% 30.07 in 10.0 mi ESE 6.9 mph - N/A   Clear
9:35 PM 75.2 °F - 60.8 °F 61% 30.07 in 10.0 mi ESE 8.1 mph - N/A   Clear
9:55 PM 73.4 °F - 59.0 °F 61% 30.08 in 10.0 mi ESE 8.1 mph - N/A   Clear
10:15 PM 73.4 °F - 59.0 °F 61% 30.09 in 10.0 mi ESE 9.2 mph - N/A   Clear
10:35 PM 71.6 °F - 59.0 °F 64% 30.09 in 10.0 mi ESE 6.9 mph - N/A   Clear
10:55 PM 71.6 °F - 59.0 °F 64% 30.09 in 10.0 mi ESE 5.8 mph - N/A   Clear
11:15 PM 69.8 °F - 59.0 °F 68% 30.09 in 10.0 mi ESE 4.6 mph - N/A   Clear
11:35 PM 69.8 °F - 59.0 °F 68% 30.09 in 10.0 mi ESE 5.8 mph - N/A   Clear
11:55 PM 68.0 °F - 59.0 °F 73% 30.09 in 10.0 mi SE 5.8 mph - N/A   Clear